Terminal Aerodrome Forecast
Issued by NWS

Home | Current Version | Previous Version | Text Only | Print | Product List | Glossary On
Versions: 1 2 3 4 5 6 7 8 9 10 11 12 13 14 15 16 17 18 19 20 21 22 23 24 25
000
FTUS43 KDTX 270313 AAA
TAFDET
TAF AMD
KDET 270313Z 2703/2724 20010KT P6SM SCT025 BKN200
      TEMPO 2704/2706 BKN025
     FM270600 20008KT P6SM BKN025 BKN200
     FM271000 20008KT 4SM -DZ BR OVC015
     FM271400 23013KT 6SM -SHRA OVC025=

USA.gov is the U.S. government's official web portal to all federal, state and local government web resources and services.